(89) Julia
ephemeris date magn radius delta ra dec elong phase
Opposition10 Aug 20258.52.153 AU1.141 AU21h20m-11°39'176.1°1.8°
Today6 Sep 20259.22.124 AU1.196 AU20h53m-09°20'148.9°14.2°
(89) Julia - 2025-09-06
astro.vanbuitenen.nl


 
-1 year
-1 month
-1 day
Now
+1 day
+1 month
+1 year

The interactive orbit chart above shows the body's path through the solar system and its position at the given date. Green and blue lines are shown perpendicular to the ecliptic plane: Green if the path is above the ecliptic plane, blue if it is below. (Left-click and drag to rotate the view; Right-click and drag to move the view; Use scroll wheel to zoom in our out.)

The orbital elements of Julia are:

            e (Eccentricity)                : 0.1838954
            a (Semimajor axis)              : 2.5512714
            i (Inclination)                 : 16.12261
            Ω (Longitude of ascending node) : 311.52003
            ω (Argument of perihelion)      : 45.17067
            M (Mean anomaly)                : 310.02214
            Epoch                           : 2025 May 05

            L (Longitude of perihelion)     : 355.54140
            B (Latitude of perihelion)      : 11.35826
            P (Orbital period in years)     : 4.08            
        

The light curve chart below shows the estimated development of the minor planet's magnitude.


The all-sky chart below shows the path of the minor planet over the same period as the light curve. The current position is marked yellow.





The following chart shows the path of the minor planet in the next few days. The field of view is optimized for (~10x50) binoculars and finderscopes. A more printer-friendly version of the same chart can be found below.




Ephemerides:
Date       Time       RA (2000)    DEC (2000)    delta   radius  elong  phase   PA    magn
2025-09-06 00:00 UT   20 53 23.2   -09 20 43     1.196    2.124  148.9   14.2    87    9.2 
2025-09-06 07:45 UT   20 53 09.7   -09 19 08     1.197    2.123  148.6   14.3    87    9.2 
2025-09-07 00:00 UT   20 52 41.9   -09 15 47     1.201    2.123  147.8   14.7    87    9.2 
2025-09-08 00:00 UT   20 52 02.5   -09 10 52     1.206    2.122  146.7   15.1    87    9.2 
2025-09-09 00:00 UT   20 51 25.1   -09 05 58     1.212    2.121  145.6   15.6    86    9.3 
2025-09-10 00:00 UT   20 50 49.8   -09 01 05     1.218    2.120  144.5   16.0    86    9.3 
2025-09-11 00:00 UT   20 50 16.5   -08 56 13     1.224    2.119  143.5   16.4    86    9.3 
2025-09-12 00:00 UT   20 49 45.3   -08 51 22     1.230    2.118  142.4   16.9    86    9.3 
2025-09-13 00:00 UT   20 49 16.1   -08 46 31     1.236    2.117  141.4   17.3    85    9.4 
2025-09-14 00:00 UT   20 48 49.1   -08 41 41     1.242    2.116  140.3   17.7    85    9.4 
2025-09-15 00:00 UT   20 48 24.2   -08 36 52     1.249    2.115  139.3   18.1    85    9.4 
2025-09-16 00:00 UT   20 48 01.5   -08 32 04     1.256    2.114  138.2   18.5    85    9.4 
2025-09-17 00:00 UT   20 47 40.9   -08 27 15     1.263    2.114  137.2   18.9    84    9.5 
2025-09-18 00:00 UT   20 47 22.4   -08 22 28     1.270    2.113  136.2   19.2    84    9.5 
2025-09-19 00:00 UT   20 47 06.2   -08 17 40     1.277    2.112  135.2   19.6    84    9.5 
2025-09-20 00:00 UT   20 46 52.1   -08 12 53     1.284    2.111  134.2   20.0    84    9.5 
2025-09-21 00:00 UT   20 46 40.2   -08 08 06     1.292    2.110  133.2   20.3    83    9.6 
2025-09-22 00:00 UT   20 46 30.5   -08 03 18     1.300    2.109  132.2   20.6    83    9.6 
2025-09-23 00:00 UT   20 46 23.0   -07 58 30     1.308    2.109  131.2   21.0    83    9.6 
2025-09-24 00:00 UT   20 46 17.6   -07 53 42     1.316    2.108  130.3   21.3    83    9.6 
2025-09-25 00:00 UT   20 46 14.4   -07 48 54     1.324    2.107  129.3   21.6    83    9.6 
2025-09-26 00:00 UT   20 46 13.4   -07 44 05     1.332    2.106  128.4   21.9    82    9.7 
2025-09-27 00:00 UT   20 46 14.4   -07 39 15     1.340    2.106  127.4   22.2    82    9.7 
2025-09-28 00:00 UT   20 46 17.7   -07 34 24     1.349    2.105  126.5   22.5    82    9.7 
2025-09-29 00:00 UT   20 46 23.0   -07 29 33     1.357    2.104  125.6   22.8    82    9.7 
2025-09-30 00:00 UT   20 46 30.4   -07 24 40     1.366    2.103  124.6   23.1    82    9.8 
2025-10-01 00:00 UT   20 46 39.9   -07 19 46     1.375    2.103  123.7   23.3    81    9.8 
2025-10-02 00:00 UT   20 46 51.4   -07 14 51     1.384    2.102  122.8   23.6    81    9.8 
2025-10-03 00:00 UT   20 47 05.0   -07 09 55     1.393    2.101  121.9   23.8    81    9.8 
2025-10-04 00:00 UT   20 47 20.6   -07 04 57     1.402    2.101  121.0   24.1    81    9.8 
2025-10-05 00:00 UT   20 47 38.1   -06 59 58     1.411    2.100  120.2   24.3    81    9.9 
2025-10-06 00:00 UT   20 47 57.6   -06 54 57     1.420    2.099  119.3   24.5    80    9.9 


    Terminology:
            
    delta:  distance between minor planet and earth in AU
    radius: distance between minor planet and sun in AU
    magn:   magnitude (brightness) estimate    
    ra:     right ascension in hours (24h = 360deg)
    dec:    declination in degrees
    elong:  elongation in degrees (angle sun-earth-minor planet)    
    phase:  phase angle in degrees (angle sun-minor planet-earth)        
    AU:     Astronomical Unit (mean distance between earth and sun: 149597870.7 km
    

Orbital elements provided by the MPC (Minor Planet Center).
Calculations by a modified version of AAPlus, a C# implementation of the AA+ project by PJ Naughter from the algorithms presented in the book "Astronomical Algorithms" by Jean Meeus.
NGC2000 dso catalog and star labels from VizieR as provided by the Strasbourg astronomical Data Center.
Tycho2 catalog from the ESO archive.